Regional Weather Roundup
Issued by NWS

Home | Current Version | Previous Version | Text Only | Print | Product List | Glossary On
Versions: 1 2 3 4 5 6 7 8 9 10 11 12 13 14 15 16 17 18 19 20 21 22 23 24 25 26 27 28 29 30 31 32 33 34 35 36 37 38 39 40 41 42 43 44 45 46 47 48 49 50
000
ASUS43 KLMK 200110
RWRKY
KENTUCKY REGIONAL WEATHER ROUNDUP
NATIONAL WEATHER SERVICE LOUISVILLE KY
800 PM EST SUN FEB 19 2017

NOTE "FAIR" INDICATES FEW OR NO CLOUDS BELOW 12,000 FEET
WITH NO SIGNIFICANT WEATHER AND/OR OBSTRUCTIONS TO VISIBILITY.

KYZ001>023-026-027-061>063-070>075-200200-
WESTERN AND SOUTH CENTRAL KENTUCKY

CITY           SKY/WX    TMP DP  RH WIND       PRES   REMARKS
PADUCAH        CLEAR     54  52  93 CALM      30.08S
HENDERSON      CLEAR     48  45  87 E5        30.10S
OWENSBORO      CLEAR     49  47  93 E5        30.12S FOG
HOPKINSVILLE   CLEAR     59  55  86 CALM      30.10R
BOWLING GREEN  CLEAR     56  50  80 CALM      30.12S
GLASGOW        CLEAR     51  47  84 CALM      30.12S
$$

KYZ024-025-028>034-038-045-046-053-200200-
NORTH CENTRAL KENTUCKY

CITY           SKY/WX    TMP DP  RH WIND       PRES   REMARKS
LOUISVILLE/SDF PTCLDY    51  47  86 CALM      30.13S FOG
LOUISVILLE/LOU CLEAR     49  45  86 CALM      30.13F FOG
FORT KNOX      FOG       43  43 100 CALM      30.11S VSB 1/2
$$

KYZ035>037-039>044-047>052-055>060-089>105-200200-
NORTHEAST KENTUCKY

CITY           SKY/WX    TMP DP  RH WIND       PRES   REMARKS
LEXINGTON      CLEAR     49  45  86 NE9       30.14F
COVINGTON      CLEAR     48  45  89 S6        30.13S
FRANKFORT      CLEAR     46  42  86 CALM      30.12F FOG
$$

KYZ054-064>069-076>088-106>120-200200-
SOUTHEAST KENTUCKY

CITY           SKY/WX    TMP DP  RH WIND       PRES   REMARKS
JACKSON        CLEAR     53  44  71 CALM      30.16R
LONDON         CLEAR     52  44  74 CALM      30.14S
SOMERSET       CLEAR     52  43  71 CALM      30.15R
MIDDLESBORO    CLEAR     51  46  83 CALM      30.15S
MONTICELLO     CLEAR     48  44  86 NE8       30.15R
$$





USA.gov is the U.S. government's official web portal to all federal, state and local government web resources and services.